YAOGAN 25B

Satellite information

Favourite Embed

Satellite Type and Status

PAYLOADIN ORBIT

Key statistics

Satellite YAOGAN 25B at a glance.

Uptime

4021

Days in orbit

Revolutions

≈ 13.5

Per day

Orbit

LEO

Low Earth Orbit

Inclination

63.4

Latest

Satellite identification and parameters

Extended collection of information and parameters for YAOGAN 25B.

Object identification

Identified? True

Debris? False

Object name: YAOGAN 25B

International designator: 2014-080B

Object number (NORAD): 40339

Object ID (CCSDS): 40339

Country: PEOPLES REPUBLIC OF CHINA (PRC)

Current information (Y/N): Y

RCS size: LARGE

Orbital parameters

Period: 107.031 minutes

Inclination: 63.3909 deg

SMA: 7467.33 km

Apoapsis: 1350.661 km

Periapsis: 827.729 km

RAAN: 72.2568 deg

Eccentricy: 0.03501464

Argument of periapsis: 8.0892 deg

Mean anomaly: 352.5579 deg

Mean motion: 13.45410321 rev/day

Mean motion (dot): -0.00000025 rev/day2

B* drag term: 0.000076559048 1/REarth

Two-line elements (TLE)

Creation date: Dec. 12, 2025, 10:14 a.m.

Reference frame: TEME

Reference center: EARTH

Epoch: Dec. 12, 2025, 8:09 a.m. UTC

TLE line 0: 0 YAOGAN 25B

TLE line 1: 1 40339U 14080B 25346.33965178 -.00000025 00000-0 76559-4 0 9998

TLE line 2: 2 40339 63.3909 72.2568 0350146 8.0892 352.5579 13.45410321540499

Live tracking on map

Real-time ground track for satellite YAOGAN 25B.

In-orbit conjunctions

There are no conjunctions computed for YAOGAN 25B, at the moment. Check back to stay up to date, as we update our databases every day.

Go to all conjunctions

Associated space launch

YAOGAN 25B was lifted into orbit during the mission ‘Long March 4C | Yaogan 25A, Yaogan 25B, Yaogan 25C’, on board a Long March 4C space rocket.

The launch took place on Dec. 10, 2014, 7:33 p.m. from Launch Area 94 (SLS-2 / 603).

For more information about the launch, click the button.

Launch to space Long March 4C | Yaogan 25A, Yaogan 25B, Yaogan 25C
Long March 4C | Yaogan 25A, Yaogan 25B, Yaogan 25C

Agency: N/A

Status: Launch Successful

Launch date: Dec. 10, 2014, 7:33 p.m. UTC

Rocket: Long March 4C

Launch pad: Launch Area 94 (SLS-2 / 603)

Location: Jiuquan Satellite Launch Center, People's Republic of China

...

Latest news about this satellite

There are no fresh news available about this satellite. Check back as we update our databases every day.


Newsletter sign-up

Weekly statistics, charts and insights to help you stay on top of the space industry.